Regional Weather Roundup
Issued by NWS

Home | Current Version | Previous Version | Text Only | Print | Product List | Glossary Off
Versions: 1 2 3 4 5 6 7 8 9 10 11 12 13 14 15 16 17 18 19 20 21 22 23 24 25 26 27 28 29 30 31 32 33 34 35 36 37 38 39 40 41 42 43 44 45 46 47 48 49 50

000
ASUS43 KLOT 300404
RWRIL

ILLINOIS REGIONAL WEATHER ROUNDUP
NATIONAL WEATHER SERVICE CHICAGO/ROMEOVILLE IL
1100 PM CDT MON AUG 29 2016

NOTE: "FAIR" INDICATES FEW OR NO CLOUDS BELOW 12,000 FEET WITH NO
SIGNIFICANT WEATHER AND/OR OBSTRUCTIONS TO VISIBILITY.

* THESE STATIONS ARE NOT UNDER NWS QUALITY CONTROL. THEY ALSO MAY NOT
  REPORT WEATHER SUCH AS PRECIPITATION OR FOG.

ILZ001-002-007-009-015-016-024-300500-
NORTHWEST ILLINOIS

CITY           SKY/WX    TMP DP  RH WIND       PRES   REMARKS
MOLINE         MOCLDY    73  70  90 E6        30.16S
STERLING*      CLEAR     69  69 100 CALM      30.17F FOG
SAVANNA*       PTCLDY    69  68  97 CALM      30.17S
$$

ILZ003-004-008-010-011-017-018-300500-
NORTH CENTRAL ILLINOIS

CITY           SKY/WX    TMP DP  RH WIND       PRES   REMARKS
ROCKFORD       CLOUDY    71  69  93 E3        30.19S FOG
FREEPORT*      FOG       67  66  99 CALM      30.20S VSB 1/2
ROCHELLE*      MOCLDY    69  69  98 CALM      30.18S FOG
$$

ILZ005-006-012>014-019>023-300500-
NORTHEAST ILLINOIS

CITY           SKY/WX    TMP DP  RH WIND       PRES   REMARKS
CHICAGO-OHARE  CLOUDY    74  72  93 CALM      30.18R FOG
CHICAGO-MIDWAY CLOUDY    78  71  79 N3        30.18R HX  80
AURORA         CLOUDY    73  71  93 CALM      30.18S FOG
LANSING*       CLEAR     75  74  98 CALM      30.18R
JOLIET*        PTCLDY    75  74  96 N3        30.18R FOG
WAUKEGAN       CLOUDY    71  70  96 CALM      30.18R FOG
DUPAGE AIRPORT PTCLDY    73  70  90 E3        30.18S FOG
KANKAKEE*      CLEAR     75  73  96 CALM      30.17S
WHEELING       PTCLDY    73  72  96 CALM      30.19S FOG
MORRIS*        CLEAR     71  70  96 CALM      30.17S FOG
ROMEOVILLE*    PTCLDY    73  73 100 NE5       30.18S FOG
$$

LMZ740>746-300500-
SOUTHERN LAKE MICHIGAN

STATION/POSITION SKY/WX   TEMP    WIND        PRES    VSBY  WAVE
                          AIR SEA DIR/SP/G                  HT/PER
                          (F)     (DEG/KT/KT) (MB)    (MI)  (FT/S)
SOUTHERN BUOY              76 77  100/  6/  6 1021.0          0
WILMETTE HARBOR            74 74  350/  2/  4   N/A           1
HARRISON CRIB              76      80/  5/  6   N/A
BURNHAM HARBOR             74     320/  2/  4   N/A
CALUMET HARBOR             74      10/  4/  6 1021.1S
BURNS HARBOR               74      70/  8/ 10 1021.7F
MICHIGAN CITY              74      60/  4/  5   N/A
MICHIGAN CITY 6N           75 76   90/  6/  6   N/A           1/ 2
ST. JOSEPH                 76 76   90/  6/  8 1021.2F         1
$$

ILZ025>027-034>036-040-047-049-050-058-095>099-300500-
WEST-CENTRAL ILLINOIS

CITY           SKY/WX    TMP DP  RH WIND       PRES   REMARKS
QUINCY         CLEAR     74  70  87 NE3       30.15F
GALESBURG*     CLOUDY    73  70  91 CALM      30.16S
MACOMB*        PTCLDY    72  71  97 CALM      30.17F
JACKSONVILLE*  CLEAR     75  73  92 E3        30.15S
PITTSFIELD*    CLEAR     74  73  96 CALM      30.17R
$$

ILZ028>032-037-038-041>044-048-051>054-059>061-300500-
CENTRAL ILLINOIS

CITY           SKY/WX    TMP DP  RH WIND       PRES   REMARKS
PONTIAC        CLOUDY    74  74 100 CALM      30.18R FOG
BLOOMINGTON    CLEAR     76  72  87 SE3       30.19R
DECATUR        CLEAR     76  72  87 CALM      30.17R
PEORIA         PTCLDY    75  74  96 E6        30.16S
LACON*         PTCLDY    70  69  96 CALM      30.16S
LINCOLN*       PTCLDY    75  75  98 CALM      30.16S
SPRINGFIELD    CLEAR     78  73  84 E5        30.16R HX  81
TAYLORVILLE    CLEAR     74  73  96 CALM      30.16S
$$

ILZ033-039-045-046-055>057-062-063-300500-
EAST-CENTRAL ILLINOIS

CITY           SKY/WX    TMP DP  RH WIND       PRES   REMARKS
CHAMPAIGN      PTCLDY    75  72  90 E5        30.17S
RANTOUL*       CLEAR     78  74  87 CALM      30.17S HX  80
MATTOON        CLEAR     75  72  90 CALM      30.16S
$$

ILZ079-100>102-300500-
SOUTHWEST ILLINOIS

CITY           SKY/WX    TMP DP  RH WIND       PRES   REMARKS
ALTON          CLEAR     76  73  92 CALM      30.16R
BELLEVILLE     CLEAR     78  75  92 E3        30.14R
CAHOKIA*       CLEAR     78  73  84 CALM      30.14R HX  81
SPARTA*        CLEAR     75  72  91 CALM      30.15R
$$

ILZ064>066-069>071-074>076-080>082-084>086-088>090-092>094-300500-
SOUTH-CENTRAL ILLINOIS

CITY           SKY/WX    TMP DP  RH WIND       PRES   REMARKS
CARBONDALE     CLEAR     74  71  91 CALM      30.13S
EFFINGHAM*     CLEAR     73  73 100 CALM      30.18R
MARION         CLEAR     77  73  88 CALM      30.14S
MT. VERNON     CLEAR     72  66  83 CALM      30.15S
CENTRALIA*     CLEAR     74  74  99 CALM      30.15R
SALEM*         CLEAR     74  71  90 CALM      30.15S
METROPOLIS*    CLEAR     76  74  92 CALM      30.12S
$$

ILZ067-068-072-073-078-083-087-091-300500-
SOUTHEAST ILLINOIS

CITY           SKY/WX    TMP DP  RH WIND       PRES   REMARKS
LAWRENCEVILLE  CLEAR     75  75 100 CALM      30.15S
FLORA*         CLEAR     76  74  93 CALM      30.16R
FAIRFIELD*       N/A     77  73  86 CALM      30.14R
HARRISBURG*    CLEAR     78  73  85 E3        30.13S
ROBINSON*      FOG       69  69 100 CALM      30.16S VSB 1/4
CARMI*         CLEAR     73  73 100 CALM      30.13S
$$

ABBREVIATIONS USED IN REMARKS
   TC - TEMPERATURE IN CELSIUS
  WCI - WIND CHILL INDEX
   HX - HEAT INDEX
  VSB - VISIBILITY
$$





USA.gov is the U.S. government's official web portal to all federal, state and local government web resources and services.